Location: Brompton
(51.4000°N, 0.5333°E)
Time: 05:21:15
(UTC+00:00)

USA 215 - Pass Details

Date: 04 October 2021
Orbit: 1093 x 1114 km, 123.0° (Epoch: 14 October)

Event Time Altitude Azimuth Distance (km) Brightness Sun altitude
Exits shadow 19:38:43 36° 104° (ESE) 1,678 3.7 -20.9°
Maximum altitude 19:41:40 79° 24° (NNE) 1,125 3.2 -21.3°
Drops below altitude 10° 19:48:13 10° 299° (WNW) 2,970 6.6 -22.3°
Sets 19:50:43 0° 298° (WNW) 3,932 7.6 -22.6°
